Location: Pine Mountain Observatory
(43.7910°N, 120.9377°W)
Time: 03:40:36
(UTC-07:00)

Altair - All Passes

Search period start: 23 May 2019 00:00
Search period end: 02 June 2019 00:00
Orbit: 1501 x 1683 km, 47.2° (Epoch: 22 May)

Date Brightness Start Highest point End Pass type
(mag) Time Alt. Az. Time Alt. Az. Time Alt. Az.
23 May - 02:11:50 10° SSE 02:16:28 14° ESE 02:21:06 10° E visible
23 May - 04:09:53 10° SSW 04:19:25 50° SE 04:29:02 10° ENE visible
23 May - 06:13:45 10° WSW 06:23:59 85° NNW 06:34:08 10° ENE daylight
23 May - 08:19:19 10° W 08:29:32 75° N 08:39:30 10° E daylight
23 May - 10:24:36 10° WNW 10:34:39 73° SSW 10:44:20 10° SE daylight
23 May - 12:30:23 10° WNW 12:38:16 28° SW 12:45:58 10° S daylight
24 May - 01:47:57 10° SE 01:51:27 12° ESE 01:54:59 10° E visible
24 May - 03:44:54 10° SSW 03:54:18 47° SE 04:03:47 10° ENE visible
24 May - 05:48:32 10° WSW 05:58:44 87° NNW 06:08:55 10° ENE daylight
24 May - 07:54:02 10° W 08:04:16 74° N 08:14:15 10° E daylight
24 May - 09:59:21 10° WNW 10:09:28 77° SSW 10:19:14 10° SE daylight
24 May - 12:05:00 10° WNW 12:13:13 31° SW 12:21:13 10° S daylight
25 May - 01:24:51 10° SE 01:26:27 10° ESE 01:28:03 10° ESE visible
25 May - 03:19:56 10° SSW 03:29:11 43° SE 03:38:30 10° ENE visible
25 May - 05:23:19 10° WSW 05:33:30 90° S 05:43:41 10° ENE daylight
25 May - 07:28:46 10° W 07:38:59 73° N 07:49:01 10° E daylight
25 May - 09:34:07 10° WNW 09:44:17 80° SSW 09:54:06 10° ESE daylight
25 May - 11:39:38 10° WNW 11:48:09 33° SW 11:56:27 10° SSE daylight
26 May - 02:55:01 10° SSW 03:04:04 40° SE 03:13:13 10° ENE visible
26 May - 04:58:06 10° WSW 05:08:17 87° SSE 05:18:28 10° ENE daylight
26 May - 07:03:31 10° W 07:13:43 73° N 07:23:46 10° E daylight
26 May - 09:08:53 10° WNW 09:19:04 84° SSW 09:28:57 10° ESE daylight
26 May - 11:14:18 10° WNW 11:23:05 36° SW 11:31:37 10° SSE daylight
27 May - 02:30:08 10° SSW 02:38:58 37° SE 02:47:55 10° ENE visible
27 May - 04:32:55 10° WSW 04:43:03 84° SSE 04:53:15 10° ENE visible
27 May - 06:38:14 10° W 06:48:27 73° N 06:58:32 10° E daylight
27 May - 08:43:39 10° WNW 08:53:52 87° SSW 09:03:48 10° ESE daylight
27 May - 10:48:59 10° WNW 10:58:00 39° SW 11:06:45 10° SSE daylight
28 May - 02:05:16 10° SSW 02:13:52 34° SE 02:22:36 10° ENE visible
28 May - 04:07:44 10° WSW 04:17:51 81° SSE 04:28:02 10° ENE visible
28 May - 06:12:58 10° W 06:23:11 73° N 06:33:17 10° E daylight
28 May - 08:18:24 10° WNW 08:28:38 90° SSW 08:38:37 10° ESE daylight
28 May - 10:23:40 10° WNW 10:32:54 42° SW 10:41:51 10° SSE daylight
29 May - 01:40:27 10° S 01:48:47 32° SE 01:57:15 10° ENE visible
29 May - 03:42:35 10° SW 03:52:39 78° SSE 04:02:48 10° ENE visible
29 May - 05:47:42 10° W 05:57:54 74° N 06:08:02 10° E daylight
29 May - 07:53:10 10° WNW 08:03:25 88° NNE 08:13:27 10° ESE daylight
29 May - 09:58:24 10° WNW 10:07:47 46° SW 10:16:56 10° SSE daylight
29 May - 12:07:39 10° WSW 12:10:32 12° WSW 12:13:24 10° SW daylight
30 May - 01:15:41 10° S 01:23:43 29° SE 01:31:53 10° ENE visible
30 May - 03:17:27 10° SW 03:27:26 74° SSE 03:37:35 10° ENE visible
30 May - 05:22:26 10° W 05:32:37 75° N 05:42:47 10° E daylight
30 May - 07:27:55 10° WNW 07:38:11 85° NNE 07:48:14 10° ESE daylight
30 May - 09:33:07 10° WNW 09:42:41 49° SW 09:51:58 10° SSE daylight
30 May - 11:41:20 10° W 11:45:32 13° WSW 11:49:42 10° SSW daylight
31 May - 00:50:57 10° S 00:58:39 26° SE 01:06:28 10° ENE visible
31 May - 02:52:20 10° SW 03:02:15 70° SSE 03:12:21 10° ENE visible
31 May - 04:57:10 10° W 05:07:21 75° N 05:17:32 10° ENE daylight
31 May - 07:02:40 10° WNW 07:12:56 83° NNE 07:23:01 10° ESE daylight
31 May - 09:07:51 10° WNW 09:17:32 53° SW 09:26:59 10° SE daylight
31 May - 11:15:23 10° W 11:20:32 15° WSW 11:25:37 10° SSW daylight
01 Jun - 00:26:18 10° S 00:33:36 24° SE 00:41:01 10° E visible
01 Jun - 02:27:13 10° SW 02:37:04 67° SSE 02:47:07 10° ENE visible
01 Jun - 04:31:55 10° W 04:42:05 77° N 04:52:18 10° ENE visible
01 Jun - 06:37:26 10° WNW 06:47:41 81° NNE 06:57:47 10° ESE daylight
01 Jun - 08:42:35 10° WNW 08:52:24 56° SW 09:01:58 10° SE daylight
01 Jun - 10:49:38 10° W 10:55:31 17° SW 11:01:19 10° SSW daylight
